User: anonymous   Login
Location: Unspecified
(0.0000°N, 0.0000°E)
Time: 11:46:20
(UTC+00:00)
Language:

VZLUSAT 1 - Orbit

View from above orbital plane
View from above orbital plane
View from above satellite
View from above satellite

Ground track
Ground track

The orbit data is extracted from the following two-line orbital elements,

1 42790U 17036AB  18168.74571423 +.00001309 +00000-0 +59827-4 0  9994
2 42790 097.4014 228.7211 0013191 077.4541 282.8170 15.22259574054600
Epoch (UTC): 17 June 2018 17:53:49
Eccentricity: 0.0013191
inclination: 97.4014°
perigee height: 490 km
apogee height: 508 km
right ascension of ascending node: 228.7211°
argument of perigee: 77.4541°
revolutions per day: 15.22259574
mean anomaly at epoch: 282.8170°
orbit number at epoch: 5460

The dashed part of the orbit path shows where the satellite is in the earth's shadow,  

DLR